Location: Caoba
(9.7667°N, 67.4833°W)
Time: 03:44:44
(UTC+00:00)

Cosmos 2263 Rocket - Pass Details

Date: 08 September 2024
Orbit: 821 x 849 km, 71.0° (Epoch: 09 October)

Event Time Altitude Azimuth Distance (km) Brightness Sun altitude
Rises 23:16:54 0° 325° (NW) 3,401 6.0 -11.3°
Reaches altitude 10° 23:19:40 10° 313° (NW) 2,466 5.5 -11.9°
Maximum altitude 23:24:24 28° 256° (WSW) 1,544 4.4 -13.1°
Drops below altitude 10° 23:29:08 10° 199° (SSW) 2,459 4.8 -14.3°
Sets 23:31:54 0° 188° (S) 3,390 5.3 -14.9°
